Tracking 27380 objects as of 6-Jun-2023
HD Live streaming from Space Station
objects crossing your sky now

OPS 4682 DEB

Track OPS 4682 DEB now!
10-day predictions


NORAD ID: 19664
Int'l Code: 1965-027AX
Perigee: 1,240.8 km
Apogee: 1,276.6 km
Inclination: 90.3 °
Period: 110.5 minutes
Semi major axis: 7629 km
RCS: 0.0123 m2 (small)
Launch date: April 3, 1965
Source: United States (US)
Launch site: AIR FORCE WESTERN TEST RANGE (AFWTR)

Note: This is SATELLITE DEBRIS
Your satellite tracking list
Your tracking list is empty




NASA's NSSDC Master Catalog

Two Line Element Set (TLE):
1 19664U 65027AX  23156.94931740 -.00000096  00000-0 -33129-3 0  9998
2 19664  90.2520 332.8218 0023424 253.7193 260.2010 13.02689783912457
Source of the keplerian elements: AFSPC